User: anonymous   Login
Location: Unspecified
(44.0704°N, 88.6889°W)
Time: 05:37:04
(UTC+02:00)
Language:

Tiros 1 - Orbit

View from above orbital plane
View from above orbital plane
View from above satellite
View from above satellite

Ground track
Ground track

The orbit data is extracted from the following two-line orbital elements,

1    29U 60002B   19166.32507931 -.00000143  00000-0  98041-5 0  9998
2    29  48.3790 245.8615 0023475  98.1183 262.2393 14.74307306164346
Epoch (UTC): 15 June 2019 07:48:06
Eccentricity: 0.0023475
inclination: 48.3790°
perigee height: 631 km
apogee height: 664 km
right ascension of ascending node: 245.8615°
argument of perigee: 98.1183°
revolutions per day: 14.74307306
mean anomaly at epoch: 262.2393°
orbit number at epoch: 16434

The dashed part of the orbit path shows where the satellite is in the earth's shadow,  

DLR